OBJECT_NAME,OBJECT_ID,EPOCH,MEAN_MOTION,ECCENTRICITY,INCLINATION,RA_OF_ASC_NODE,ARG_OF_PERICENTER,MEAN_ANOMALY,EPHEMERIS_TYPE,CLASSIFICATION_TYPE,NORAD_CAT_ID,ELEMENT_SET_NO,REV_AT_EPOCH,BSTAR,MEAN_MOTION_DOT,MEAN_MOTION_DDOT GPS BIIR-5 (PRN 22),2000-040A,2026-09-12T02:33:38.085120,2.00558320,.01183391,54.8394,211.7123,303.7653,98.8084,0,U,26407,999,19169,0,-.6E-7,0 GPS BIIR-8 (PRN 16),2003-005A,2026-09-11T14:28:20.052768,2.00555870,.01502251,54.8693,211.5378,53.5986,121.3720,0,U,27663,999,17304,0,-.1E-6,0 GPS BIIR-11 (PRN 19),2004-009A,2026-09-10T21:31:57.660096,2.00573795,.0117973,54.7639,272.2167,176.3888,2.1213,0,U,28190,999,16466,0,-.11E-6,0 GPS BIIR-13 (PRN 02),2004-045A,2026-09-11T03:25:59.480256,2.00559594,.0172011,55.0798,321.4298,318.4975,101.9612,0,U,28474,999,16015,0,-.79E-6,0 GPS BIIRM-1 (PRN 17),2005-038A,2026-09-11T16:30:33.697728,2.00559724,.01287558,54.8134,269.6790,297.4628,121.8822,0,U,28874,999,15357,0,-.15E-6,0 INMARSAT 4-F2 (SOUTHPAN/PRN 122),2005-044A,2026-09-12T06:01:57.059040,1.00271168,.00023333,5.2089,43.7219,130.7260,50.8032,0,U,28899,999,7639,0,-.272E-5,0 GPS BIIRM-2 (PRN 31),2006-042A,2026-09-11T11:59:38.749056,2.00565341,.01087827,54.7152,147.9105,57.0520,126.5252,0,U,29486,999,14612,0,.13E-6,0 GPS BIIRM-3 (PRN 12),2006-052A,2026-09-12T04:08:01.008960,2.00562877,.00854041,54.9240,210.5606,91.1350,269.8072,0,U,29601,999,14515,0,-.5E-7,0 GPS BIIRM-4 (PRN 15),2007-047A,2026-09-11T23:33:51.141888,2.00551515,.0169011,54.1635,76.4901,89.4051,272.5828,0,U,32260,999,13855,0,-.14E-6,0 COSMOS 2433 (720),2007-052A,2026-09-12T04:44:32.349696,2.13104026,.00053973,65.5225,313.0027,223.8548,136.1798,0,U,32275,999,14691,0,-.45E-6,0 COSMOS 2432 (719),2007-052B,2026-09-12T06:26:39.689088,2.13103011,.00086266,65.5383,313.1296,307.5173,50.4881,0,U,32276,999,14693,0,-.46E-6,0 GPS BIIRM-5 (PRN 29),2007-062A,2026-09-12T07:24:22.568256,2.00564843,.0036015,54.9678,270.6430,170.0830,195.9120,0,U,32384,999,13726,0,-.18E-6,0 COSMOS 2434 (721),2007-065A,2026-09-09T05:20:25.031616,2.13101148,.00014809,64.3196,189.0826,28.9610,98.0835,0,U,32393,999,14556,0,-.2E-6,0 COSMOS 2436 (723),2007-065C,2026-09-12T04:29:18.377664,2.13099789,.00174364,64.3280,189.0560,358.7557,14.4716,0,U,32395,999,14558,0,.4E-7,0 GPS BIIRM-6 (PRN 07),2008-012A,2026-09-11T21:21:33.786432,2.00552428,.0211407,54.5035,146.4598,248.5370,109.2661,0,U,32711,999,13549,0,.14E-6,0 GPS BIIRM-8 (PRN 05),2009-043A,2026-09-11T09:28:09.647904,2.00577039,.00515989,56.2613,24.0728,86.0301,286.2006,0,U,35752,999,12509,0,-.96E-6,0 COSMOS 2456 (730),2009-070A,2026-09-06T17:38:08.644992,2.13103422,.00018509,65.0634,68.1929,353.7024,183.4854,0,U,36111,999,13016,0,.37E-6,0 COSMOS 2457 (733),2009-070B,2026-09-11T23:02:52.074816,2.13100816,.0005855,65.0524,67.8570,130.4391,222.2066,0,U,36112,999,13027,0,-.3E-7,0 COSMOS 2460 (732),2010-007C,2026-09-08T05:02:36.878784,2.13101570,.0002316,65.3677,311.6550,209.5113,148.1159,0,U,36402,999,12849,0,-.27E-6,0 GPS BIIF-1 (PRN 25),2010-022A,2026-09-11T00:00:00.000000,2.00566725,.0128905,54.2612,205.1080,66.3945,140.7715,0,U,36585,999,11931,0,-.16E-6,0 BEIDOU-2 IGSO-1 (C06),2010-036A,2026-08-21T18:11:43.719360,1.00253816,.00581868,54.3073,162.3689,224.3483,321.2966,0,U,36828,999,5875,0,-.137E-5,0 BEIDOU-2 G4 (C04),2010-057A,2026-09-12T07:32:21.605280,1.00270634,.000799,3.8586,68.3272,180.0187,16.0579,0,U,37210,999,5816,0,-.125E-5,0 BEIDOU-2 IGSO-2 (C07),2010-068A,2026-09-10T23:47:02.683392,1.00254283,.00572503,47.3940,270.7552,216.2433,325.9173,0,U,37256,999,5765,0,-.181E-5,0 BEIDOU-2 IGSO-3 (C08),2011-013A,2026-09-11T17:17:23.769600,1.00292639,.0034682,62.5388,39.3441,183.6392,132.9930,0,U,37384,999,5652,0,-.177E-5,0 GSAT-8 (GAGAN/PRN 127),2011-022A,2026-09-12T05:36:44.476704,1.00271562,.00057933,2.3500,80.6681,156.9482,252.9059,0,U,37605,999,5409,0,.71E-6,0 BEIDOU-2 IGSO-4 (C09),2011-038A,2026-09-10T19:39:11.817792,1.00268280,.01603217,54.6025,164.9115,231.0094,343.0930,0,U,37763,999,5550,0,-.114E-5,0 GSAT0101 (GALILEO-PFM),2011-060A,2026-09-11T15:54:44.036352,1.70475619,.00002522,56.9594,339.4167,59.2386,300.8114,0,U,37846,999,9259,0,-.103E-5,0 GSAT0102 (GALILEO-FM2),2011-060B,2026-09-03T10:17:32.822304,1.70475714,.0001594,56.9635,339.6410,329.3167,62.9507,0,U,37847,999,9246,0,-.84E-6,0 COSMOS 2476 (744),2011-064A,2026-09-11T02:21:04.834368,2.13103670,.0022536,65.3238,69.9735,230.7215,322.0571,0,U,37867,999,11559,0,.1E-6,0 COSMOS 2477 (745),2011-064B,2026-09-12T06:10:18.757056,2.13102570,.0019299,65.3304,70.0147,230.8178,311.3238,0,U,37868,999,11561,0,-.1E-7,0 COSMOS 2475 (743),2011-064C,2026-09-12T05:24:03.074976,2.13101319,.00244983,65.3375,70.0384,246.3694,225.8740,0,U,37869,999,11562,0,0,0 BEIDOU-2 IGSO-5 (C10),2011-073A,2026-09-10T19:05:16.843776,1.00279182,.01166519,47.5267,270.4734,224.1508,237.2700,0,U,37948,999,5399,0,-.16E-5,0 LUCH 5A (SDCM/PRN 140),2011-074B,2026-09-12T07:12:21.561984,1.00272684,.00038825,8.9694,72.5067,120.8575,72.9739,0,U,37951,999,5392,0,-.6E-6,0 BEIDOU-2 G5 (C05),2012-008A,2026-09-12T03:55:09.217632,1.00267637,.00068389,3.7859,69.0679,239.5091,160.1264,0,U,38091,999,5324,0,.44E-6,0 BEIDOU-2 M3 (C11),2012-018A,2026-09-07T08:14:19.258080,1.86229821,.00229055,55.6835,302.1014,272.4999,87.3124,0,U,38250,999,9747,0,-.28E-6,0 BEIDOU-2 M4 (C12),2012-018B,2026-09-11T00:49:33.601152,1.86229392,.00142245,55.5803,301.1830,272.3678,87.5423,0,U,38251,999,9754,0,-.49E-6,0 SES-5 (EGNOS/PRN 136),2012-036A,2026-09-12T07:05:06.004032,1.00270079,.00019729,0.0150,43.1070,124.0606,295.3840,0,U,38652,999,4533,0,0,0 BEIDOU-2 M6 (C14),2012-050B,2026-09-11T19:37:15.397248,1.86230878,.00110023,56.6242,60.0343,4.3540,355.6744,0,U,38775,999,9492,0,-.38E-6,0 GSAT-10 (GAGAN/PRN 128),2012-051B,2026-09-12T03:22:21.728928,1.00273324,.00056203,0.0556,270.2303,201.8742,12.6259,0,U,38779,999,5097,0,-.18E-5,0 GPS BIIF-3 (PRN 24),2012-053A,2026-09-11T01:42:27.551808,2.00556923,.01854514,53.5962,140.0783,67.3330,294.6954,0,U,38833,999,10116,0,.14E-6,0 GSAT0103 (GALILEO-FM3),2012-055A,2026-09-11T16:53:55.952448,1.70473471,.00020469,55.8600,99.1697,315.2788,44.7968,0,U,38857,999,8648,0,.15E-6,0 BEIDOU-2 G6 (C02),2012-059A,2026-09-12T02:19:48.360864,1.00270221,.00068483,4.6364,72.5336,323.5617,73.9929,0,U,38953,999,5078,0,-.188E-5,0 LUCH 5B (SDCM/PRN 125),2012-061A,2026-09-12T05:16:23.927232,1.00269791,.00060089,10.6683,48.9944,165.3581,199.6580,0,U,38977,999,5048,0,-.148E-5,0 COSMOS 2485 (747),2013-019A,2026-09-07T23:15:10.086336,2.13102930,.00229693,65.4699,70.8288,226.3838,133.4785,0,U,39155,999,10404,0,.39E-6,0 GPS BIIF-4 (PRN 27),2013-023A,2026-09-10T22:31:43.991040,2.00563471,.0142242,54.4436,265.4738,51.1420,310.1467,0,U,39166,999,9760,0,-.8E-7,0 IRNSS-1A,2013-034A,2026-09-10T23:39:18.667872,1.00274175,.00199888,35.9094,62.6436,178.1079,159.1335,0,U,39199,999,4822,0,.76E-6,0 GPS BIIF-5 (PRN 30),2014-008A,2026-09-11T22:30:05.178816,2.00565427,.00835894,53.6623,145.7793,231.5683,127.7499,0,U,39533,999,9142,0,.13E-6,0 ASTRA 5B (EGNOS/PRN 123),2014-011B,2026-09-12T05:27:45.338112,1.00269300,.00028069,0.1039,293.5902,256.5197,266.5756,0,U,39617,999,4554,0,.122E-5,0 COSMOS 2492 (754),2014-012A,2026-09-10T17:50:25.096992,2.13103162,.00115371,65.2426,311.0251,307.9222,52.0528,0,U,39620,999,9706,0,-.34E-6,0 IRNSS-1B,2014-017A,2026-09-12T00:10:44.143968,1.00269719,.00203538,28.7769,238.9116,191.5497,338.3290,0,U,39635,999,4566,0,.94E-6,0 LUCH 5V (SDCM/PRN 141),2014-023A,2026-09-12T00:40:05.422656,1.00270837,.00026582,5.3446,68.7928,139.8943,247.1260,0,U,39727,999,4523,0,-.281E-5,0 GPS BIIF-6 (PRN 06),2014-026A,2026-09-12T05:11:38.456448,2.00554703,.00392931,56.4493,328.1268,324.1701,35.6287,0,U,39741,999,9028,0,-.9E-6,0 COSMOS 2500 (755),2014-032A,2026-09-08T02:18:57.301920,2.13105882,.00094804,65.1795,310.8561,202.9458,157.0874,0,U,40001,999,9522,0,-.26E-6,0 GPS BIIF-7 (PRN 09),2014-045A,2026-09-11T19:22:48.412128,2.00564033,.00363455,55.4149,85.0144,119.8600,240.5660,0,U,40105,999,8781,0,.3E-7,0 GSAT0201 (GALILEO 5),2014-050A,2026-09-12T04:38:39.647616,1.85519597,.16863369,48.7843,269.8594,182.7547,176.1917,0,U,40128,999,7993,0,-.34E-6,0 GSAT0202 (GALILEO 6),2014-050B,2026-09-11T08:53:55.337568,1.85520202,.16877405,48.8022,268.9798,183.4320,175.2535,0,U,40129,999,8208,0,-.29E-6,0 IRNSS-1C,2014-061A,2026-09-12T02:19:25.896864,1.00271316,.0020178,6.7331,87.2560,9.8510,11.9244,0,U,40269,999,4356,0,-.174E-5,0 GPS BIIF-8 (PRN 03),2014-068A,2026-09-11T16:16:45.761088,2.00556705,.00670688,57.0446,27.6301,73.7719,286.9591,0,U,40294,999,8694,0,-.91E-6,0 COSMOS 2501 (702K),2014-075A,2026-09-11T15:27:54.239328,2.13101274,.00221915,63.6173,187.3806,210.5501,149.3143,0,U,40315,999,9169,0,-.2E-7,0 GPS BIIF-9 (PRN 26),2015-013A,2026-09-11T07:33:56.458656,2.00570877,.01127711,53.1580,200.6179,41.0484,319.7596,0,U,40534,999,8355,0,-.15E-6,0 GSAT0203 (GALILEO 7),2015-017A,2026-09-09T02:15:32.037120,1.70476378,.000446,56.7527,339.3092,251.6359,108.3566,0,U,40544,999,7063,0,-.1E-5,0 GSAT0204 (GALILEO 8),2015-017B,2026-09-11T16:42:58.663584,1.70475843,.00048357,56.7582,339.2572,241.3315,118.6677,0,U,40545,999,3372,0,-.103E-5,0 BEIDOU-3S IGSO-1S (C31),2015-019A,2026-09-10T17:01:05.504736,1.00288273,.00387109,49.0313,294.4241,200.3707,205.9134,0,U,40549,999,4193,0,-.162E-5,0 GPS BIIF-10 (PRN 08),2015-033A,2026-09-10T23:31:43.849632,2.00551728,.01170888,53.9223,263.5429,30.5092,330.1897,0,U,40730,999,8171,0,-.9E-7,0 BEIDOU-3S M2S (C58),2015-037A,2026-09-11T05:38:53.800224,1.86231926,.00116246,54.7915,299.0777,259.4932,100.4462,0,U,40748,999,7572,0,-.49E-6,0 BEIDOU-3S M1S (C57),2015-037B,2026-09-09T06:49:57.474336,1.86254857,.000181,54.7897,299.1308,48.3830,311.7068,0,U,40749,999,7569,0,-.34E-6,0 GSAT0206 (GALILEO 10),2015-045B,2026-09-11T02:21:44.065152,1.70473136,.00025404,54.9256,219.2330,349.0399,10.9008,0,U,40890,999,6850,0,-.2E-7,0 BEIDOU-3S IGSO-2S (C56),2015-053A,2026-09-10T23:03:27.860832,1.00285074,.0065681,49.0947,257.7528,192.4722,341.2961,0,U,40938,999,4021,0,-.124E-5,0 GPS BIIF-11 (PRN 10),2015-062A,2026-09-12T00:42:05.699232,2.00566941,.01158209,57.0156,27.4729,231.0497,127.9112,0,U,41019,999,7957,0,-.92E-6,0 GSAT-15 (GAGAN/PRN 139),2015-065A,2026-09-12T02:22:25.608864,1.00269430,.00016503,0.0447,264.7267,239.0915,336.3790,0,U,41028,999,3967,0,-.272E-5,0 GSAT0209 (GALILEO 12),2015-079A,2026-09-10T02:15:20.222784,1.70473608,.00036987,55.8813,98.9312,16.5279,343.5809,0,U,41174,999,6622,0,.21E-6,0 GSAT0208 (GALILEO 11),2015-079B,2026-09-10T21:37:29.789472,1.70473654,.00051705,55.8790,98.9063,45.8921,314.2454,0,U,41175,999,6665,0,.18E-6,0 IRNSS-1E,2016-003A,2026-09-11T21:19:34.009248,1.00276715,.0021433,33.4232,58.4963,180.1508,183.9723,0,U,41241,999,3895,0,-.297E-5,0 GPS BIIF-12 (PRN 32),2016-007A,2026-09-11T14:52:06.377664,2.00572750,.00974933,55.5828,86.0329,247.2191,111.8125,0,U,41328,999,7757,0,.7E-7,0 COSMOS 2514 (751),2016-008A,2026-09-11T15:05:51.976320,2.13102586,.00137081,64.9655,310.0358,209.9478,150.0521,0,U,41330,999,8246,0,-.38E-6,0 BEIDOU-2 IGSO-6 (C13),2016-021A,2026-09-11T20:43:38.603136,1.00282549,.0061604,60.3547,37.1827,228.2411,132.6997,0,U,41434,999,3835,0,-.162E-5,0 IRNSS-1G,2016-027A,2026-09-11T23:07:21.813888,1.00265420,.00039157,5.4052,95.4557,46.7052,325.0717,0,U,41469,999,3805,0,-.348E-5,0 GSAT0211 (GALILEO 14),2016-030A,2026-09-11T14:39:28.172736,1.70473146,.0003775,55.0761,219.3188,332.6530,27.2735,0,U,41549,999,6414,0,-.1E-7,0 GSAT0210 (GALILEO 13),2016-030B,2026-09-11T06:45:02.825280,1.70473599,.0004075,55.0753,219.3259,253.3502,106.5514,0,U,41550,999,6413,0,-.2E-7,0 BEIDOU-2 G7 (C03),2016-037A,2026-09-12T07:35:10.620096,1.00275942,.00051662,1.9316,69.6659,352.1556,153.8063,0,U,41586,999,776,0,-.367E-5,0 EUTELSAT 117 WEST B (WAAS/PRN 131),2016-038B,2026-09-12T06:30:24.329952,1.00271804,.00000969,0.0372,14.1157,184.7473,133.0193,0,U,41589,999,3753,0,-.26E-6,0 GSAT0207 (GALILEO 15),2016-069A,2026-09-11T13:26:53.992896,1.70473750,.00030374,55.5533,98.6945,359.7632,0.3287,0,U,41859,999,6087,0,.15E-6,0 GSAT0212 (GALILEO 16),2016-069B,2026-09-10T05:46:21.372960,1.70473888,.0003965,55.5502,98.7259,39.3601,320.7650,0,U,41860,999,6110,0,.19E-6,0 GSAT0213 (GALILEO 17),2016-069C,2026-09-08T20:20:49.486272,1.70474341,.00021681,55.5520,98.7726,331.3762,28.7083,0,U,41861,999,6094,0,.21E-6,0 GSAT0214 (GALILEO 18),2016-069D,2026-09-10T04:00:59.530752,1.70474047,.00023729,55.5429,98.7287,358.3065,1.7890,0,U,41862,999,6109,0,.2E-6,0 SES-15 (WAAS/PRN 133),2017-026A,2026-09-12T06:26:54.664800,1.00269096,.00003657,0.0490,328.9875,178.6946,171.1639,0,U,42709,999,830,0,.45E-6,0 QZS-2 (QZSS/PRN 194),2017-028A,2026-09-11T19:43:20.736192,1.00261633,.07506816,39.3043,241.8780,270.3972,275.9800,0,U,42738,999,849,0,-.19E-5,0 QZS-3 (QZSS/PRN 199),2017-048A,2026-09-11T23:06:44.374176,1.00275047,.00016161,0.0521,162.5194,347.4711,314.6970,0,U,42917,999,3312,0,-.363E-5,0 COSMOS 2522 (752),2017-055A,2026-09-10T23:56:04.933248,2.13101798,.00095759,64.0800,188.9651,237.0189,122.8770,0,U,42939,999,6980,0,-.8E-7,0 QZS-4 (QZSS/PRN 195),2017-062A,2026-09-11T13:27:38.627136,1.00274735,.07496992,40.0519,342.3827,269.6347,81.1278,0,U,42965,999,3266,0,-.343E-5,0 BEIDOU-3 M1 (C19),2017-069A,2026-09-09T23:19:40.299744,1.86231101,.0007331,56.7701,60.2963,324.1360,35.8435,0,U,43001,999,6018,0,-.2E-6,0 BEIDOU-3 M2 (C20),2017-069B,2026-09-12T01:24:37.751328,1.86230429,.00062789,56.7708,60.2633,3.9690,356.0541,0,U,43002,999,6021,0,-.39E-6,0 GSAT0215 (GALILEO 19),2017-079A,2026-09-11T05:49:50.115360,1.70473895,.00033461,55.0541,219.1395,281.3163,78.5923,0,U,43055,999,5445,0,-.2E-7,0 GSAT0216 (GALILEO 20),2017-079B,2026-09-11T12:49:01.212384,1.70473999,.00046117,55.0545,219.1316,288.6464,71.2497,0,U,43056,999,5447,0,-.1E-7,0 GSAT0217 (GALILEO 21),2017-079C,2026-09-11T04:02:19.710816,1.70473968,.00040796,55.0524,219.1392,302.5197,57.3871,0,U,43057,999,5445,0,-.2E-7,0 GSAT0218 (GALILEO 22),2017-079D,2026-09-11T09:19:14.475072,1.70473958,.0005052,55.0528,219.1309,284.2678,75.6223,0,U,43058,999,5448,0,-.2E-7,0 BEIDOU-3 M7 (C27),2018-003A,2026-09-11T19:13:40.274112,1.86227896,.00032103,54.2473,299.2879,105.5565,254.5469,0,U,43107,999,5896,0,-.55E-6,0 BEIDOU-3 M8 (C28),2018-003B,2026-09-11T04:58:59.402208,1.86230841,.00042014,54.2406,299.2900,261.2655,98.7568,0,U,43108,999,5896,0,-.51E-6,0 BEIDOU-3 M4 (C22),2018-018A,2026-09-11T15:37:39.675360,1.86231004,.0006048,56.7296,60.3017,42.6888,317.3783,0,U,43207,999,5835,0,-.36E-6,0 BEIDOU-3 M3 (C21),2018-018B,2026-09-11T17:13:26.128992,1.86230771,.00054068,56.7302,60.3038,347.6353,12.3712,0,U,43208,999,5835,0,-.36E-6,0 BEIDOU-3 M9 (C29),2018-029A,2026-09-11T09:34:48.423648,1.86228302,.00017167,54.1130,296.9256,233.1525,126.8995,0,U,43245,999,5750,0,-.49E-6,0 BEIDOU-3 M10 (C30),2018-029B,2026-09-11T07:59:39.179040,1.86229002,.00026418,54.1108,296.9552,17.4348,342.6422,0,U,43246,999,5748,0,-.48E-6,0 IRNSS-1I,2018-035A,2026-09-12T02:11:19.173696,1.00270830,.00205901,28.9564,72.8411,177.6896,188.5389,0,U,43286,999,3095,0,.82E-6,0 COSMOS 2527 (756),2018-053A,2026-09-11T21:33:15.263712,2.13101861,.00070004,65.6302,71.0175,213.4884,146.5036,0,U,43508,999,6412,0,.5E-7,0 BEIDOU-2 IGSO-7 (C16),2018-057A,2026-09-11T13:07:24.382272,1.00277412,.01079807,55.2130,162.3239,236.7833,260.8322,0,U,43539,999,2999,0,-.16E-5,0 GSAT0221 (GALILEO 25),2018-060A,2026-09-10T02:52:12.488736,1.70476218,.0004384,57.1351,339.4875,269.9725,90.0208,0,U,43564,999,5061,0,-.101E-5,0 GSAT0222 (GALILEO 26),2018-060B,2026-09-06T05:35:54.496896,1.70475955,.000458,57.1403,339.5966,241.9595,118.0319,0,U,43565,999,5059,0,-.93E-6,0 GSAT0219 (GALILEO 23),2018-060C,2026-08-30T09:57:42.200928,1.70476242,.00035149,57.1426,339.7826,273.9182,86.0846,0,U,43566,999,5045,0,-.76E-6,0 GSAT0220 (GALILEO 24),2018-060D,2026-09-10T04:40:15.337344,1.70475942,.00036776,57.1370,339.4905,268.4040,91.5976,0,U,43567,999,5062,0,-.101E-5,0 BEIDOU-3 M5 (C23),2018-062A,2026-09-11T13:22:02.711712,1.86228716,.00041089,54.0829,179.3693,311.4726,48.4906,0,U,43581,999,5524,0,-.8E-7,0 BEIDOU-3 M6 (C24),2018-062B,2026-09-10T21:12:43.171200,1.86228127,.00064136,54.0824,179.3813,28.3297,331.6991,0,U,43582,999,5523,0,-.15E-6,0 BEIDOU-3 M12 (C26),2018-067A,2026-09-10T19:44:14.425152,1.86227478,.00086844,54.1788,178.1378,35.7772,324.2772,0,U,43602,999,5471,0,-.15E-6,0 BEIDOU-3 M11 (C25),2018-067B,2026-09-12T00:45:32.086368,1.86226940,.00052237,54.1757,178.0602,24.7633,335.2664,0,U,43603,999,5476,0,-.2E-7,0 BEIDOU-3 M13 (C32),2018-072A,2026-09-11T23:39:18.730080,1.86230810,.00041801,56.7046,59.7997,330.4364,29.5577,0,U,43622,999,5427,0,-.4E-6,0 BEIDOU-3 M14 (C33),2018-072B,2026-09-11T20:25:30.706176,1.86230892,.00038643,56.7062,59.7985,24.7605,335.2765,0,U,43623,999,5426,0,-.39E-6,0 BEIDOU-3 M16 (C35),2018-078A,2026-09-10T22:21:05.738688,1.86232315,.0006056,54.0096,296.9723,32.3821,327.7243,0,U,43647,999,5375,0,-.45E-6,0 BEIDOU-3 M15 (C34),2018-078B,2026-09-11T14:22:17.234112,1.86227470,.00026591,54.0047,296.9488,38.7743,321.3116,0,U,43648,999,5378,0,-.5E-6,0 BEIDOU-3 G1 (C59),2018-085A,2026-09-12T07:32:21.605280,1.00271639,.00059599,2.6093,94.9051,21.2547,148.3193,0,U,43683,999,2893,0,-.122E-5,0 COSMOS 2529 (757),2018-086A,2026-09-11T01:19:57.673632,2.13101834,.00106608,64.2963,189.6966,254.9299,104.9393,0,U,43687,999,6111,0,-.8E-7,0 BEIDOU-3 M17 (C36),2018-093A,2026-09-11T10:02:12.634656,1.86228307,.0008617,54.1662,179.3727,302.8640,187.5989,0,U,43706,999,5314,0,-.9E-7,0 BEIDOU-3 M18 (C37),2018-093B,2026-09-12T03:52:46.892640,1.86226659,.00074767,54.1670,179.3395,338.2296,21.7414,0,U,43707,999,5315,0,-.2E-7,0 GPS BIII-1 (PRN 04),2018-109A,2026-09-12T00:11:47.723136,2.00565073,.00399894,55.7397,88.7611,196.1580,336.6894,0,U,43873,999,5681,0,.7E-7,0 BEIDOU-3 IGSO-1 (C38),2019-023A,2026-09-07T17:44:03.010272,1.00267210,.0027421,58.8141,36.8058,223.4639,111.5661,0,U,44204,999,803,0,-.201E-5,0 BEIDOU-2 G8 (C01),2019-027A,2026-09-12T07:44:54.685824,1.00272032,.00090495,1.8738,74.3172,278.0738,259.7237,0,U,44231,999,2695,0,-.26E-5,0 COSMOS 2534 (758),2019-030A,2026-09-08T07:03:58.896288,2.13102149,.0012038,64.3699,189.8198,275.8196,260.4578,0,U,44299,999,5669,0,-.19E-6,0 BEIDOU-3 IGSO-2 (C39),2019-035A,2026-09-11T10:59:48.652800,1.00273492,.00386525,55.2503,158.1052,211.3311,265.7860,0,U,44337,999,2653,0,-.155E-5,0 GPS BIII-2 (PRN 18),2019-056A,2026-09-10T09:48:58.382784,2.00571097,.0065766,55.5893,327.7525,199.8938,163.8410,0,U,44506,999,5178,0,-.85E-6,0 BEIDOU-3 M24 (C46),2019-061A,2026-09-10T01:57:00.737856,1.86229234,.00091736,54.3942,179.8664,11.0844,348.9243,0,U,44542,999,4737,0,-.24E-6,0 BEIDOU-3 M23 (C45),2019-061B,2026-09-10T11:52:23.318976,1.86227700,.00060428,54.3922,179.8209,0.0624,188.1997,0,U,44543,999,4738,0,-.2E-6,0 EUTELSAT 5 WEST B (EGNOS/PRN 121),2019-067A,2026-09-12T07:02:13.778592,1.00271414,.00031178,0.0807,320.7031,210.1059,281.0499,0,U,44624,999,2530,0,-.57E-6,0 BEIDOU-3 IGSO-3 (C40),2019-073A,2026-09-11T11:21:00.152352,1.00264080,.00468467,54.6556,279.9570,198.0806,161.8102,0,U,44709,999,2532,0,-.166E-5,0 BEIDOU-3 M22 (C44),2019-078A,2026-09-11T12:47:45.201984,1.86227049,.00048404,53.8546,296.7826,42.9059,317.1987,0,U,44793,999,4625,0,-.5E-6,0 BEIDOU-3 M21 (C43),2019-078B,2026-09-11T03:15:42.039936,1.86227553,.00027356,53.8284,296.7562,33.9992,326.0864,0,U,44794,999,4625,0,-.47E-6,0 COSMOS 2544 (759),2019-088A,2026-09-10T21:41:39.937344,2.13102659,.0011883,65.6173,70.8727,245.7348,114.1821,0,U,44850,999,5254,0,.15E-6,0 BEIDOU-3 M19 (C41),2019-090A,2026-09-11T09:03:23.953248,1.86231354,.00157674,56.6386,59.9456,292.8904,67.0484,0,U,44864,999,4583,0,-.34E-6,0 BEIDOU-3 M20 (C42),2019-090B,2026-09-09T02:16:43.229856,1.86231127,.00130536,56.6383,60.0563,308.9371,50.3333,0,U,44865,999,4577,0,-.13E-6,0 BEIDOU-3 G2 (C60),2020-017A,2026-09-12T04:01:01.155072,1.00272263,.0002124,2.5806,48.3907,131.9601,311.1309,0,U,45344,999,2413,0,-.153E-5,0 COSMOS 2545 (760),2020-018A,2026-09-11T02:22:22.278144,2.13102362,.0011763,64.2987,309.3957,235.3288,124.6388,0,U,45358,999,5049,0,-.36E-6,0 BEIDOU-3 G3 (C61),2020-040A,2026-09-12T07:35:10.620096,1.00269676,.00026444,2.6569,67.4129,281.4958,226.7590,0,U,45807,999,2294,0,-.367E-5,0 GPS BIII-3 (PRN 23),2020-041A,2026-09-12T04:54:28.876896,2.00566080,.0067432,56.7252,25.5740,205.4040,308.9873,0,U,45854,999,4578,0,-.95E-6,0 GALAXY 30 (WAAS/PRN 135),2020-056C,2026-09-12T06:28:02.056800,1.00271549,.00022071,0.0228,160.5572,10.2914,152.4352,0,U,46114,999,2216,0,0,0 COSMOS 2547 (705K),2020-075A,2026-09-11T18:12:09.302400,2.13099687,.00085533,64.6008,189.5880,236.4821,123.4270,0,U,46805,999,4575,0,0,0 GPS BIII-4 (PRN 14),2020-078A,2026-09-11T12:24:33.881184,2.00565053,.00760655,53.9683,207.2798,208.4421,149.1755,0,U,46826,999,4323,0,-.12E-6,0 GPS BIII-5 (PRN 11),2021-054A,2026-09-11T06:14:48.999840,2.00563701,.00284399,55.1268,328.9967,230.5018,127.7457,0,U,48859,999,3847,0,-.9E-6,0 QZS-1R (QZSS/PRN 196),2021-096A,2026-09-11T09:25:14.441664,1.00288461,.07433985,37.6399,78.3072,269.8635,277.5426,0,U,49336,999,1787,0,-.26E-5,0 GSAT0223 (GALILEO 27),2021-116A,2026-09-08T09:15:31.398048,1.70476049,.00039553,57.1270,339.4281,220.3982,200.3753,0,U,49809,999,2960,0,-.99E-6,0 GSAT0224 (GALILEO 28),2021-116B,2026-09-12T04:57:18.257184,1.70476350,.0003182,57.1262,339.3236,214.6681,143.5941,0,U,49810,999,2968,0,-.103E-5,0 COSMOS 2557 (706K),2022-075A,2026-09-11T22:07:46.771968,2.13102028,.00125206,64.2422,311.4262,269.0241,90.9097,0,U,52984,999,3256,0,-.44E-6,0 COSMOS 2559 (707K),2022-130A,2026-09-11T06:32:36.649824,2.13101663,.00135086,64.2155,311.5293,187.9833,172.0726,0,U,54031,999,3052,0,-.4E-6,0 COSMOS 2564 (761),2022-161A,2026-09-12T01:17:54.509568,2.13102030,.00110016,64.7428,189.8304,219.0104,140.9023,0,U,54377,999,2948,0,.3E-7,0 GPS BIII-6 (PRN 28),2023-009A,2026-09-11T11:00:38.553120,2.00565475,.00055413,55.1273,145.1261,333.0185,207.9019,0,U,55268,999,2697,0,.15E-6,0 BEIDOU-3 G4 (C62),2023-066A,2026-09-12T07:43:39.806400,1.00271116,.00052568,0.4400,356.6797,198.7514,51.8772,0,U,56564,999,1226,0,-.295E-5,0 NVS-01 (IRNSS-1J),2023-076A,2026-09-12T05:57:57.441600,1.00277375,.00057502,1.9670,240.3206,0.3374,329.5457,0,U,56759,999,1198,0,-.353E-5,0 COSMOS 2569 (703K),2023-114A,2026-09-12T01:35:18.827232,2.13102544,.00085698,65.3568,69.6932,289.2479,70.6925,0,U,57517,999,2411,0,0,0 BEIDOU-3 M28 (C50),2023-207A,2026-09-12T06:52:26.879808,1.86229677,.00007109,55.8347,59.3693,44.9600,315.0622,0,U,58654,999,1846,0,-.45E-6,0 BEIDOU-3 M26 (C48),2023-207B,2026-09-12T02:00:52.112736,1.86229584,.00009182,55.8364,59.3628,252.9433,107.0639,0,U,58655,999,1844,0,-.43E-6,0 GSAT0225 (GALILEO 29),2024-079A,2026-09-11T22:18:26.505216,1.70474149,.00013459,55.1754,98.6543,119.7816,61.6279,0,U,59598,999,1479,0,.12E-6,0 GSAT0227 (GALILEO 30),2024-079C,2026-09-11T05:32:31.864704,1.70474135,.00041437,55.1701,98.6721,92.2332,267.9075,0,U,59600,999,1483,0,.15E-6,0 GSAT0232 (GALILEO 32),2024-167A,2026-09-12T01:13:47.191296,1.70473627,.00056213,55.1656,218.9315,235.9553,123.2359,0,U,61182,999,1235,0,.1E-7,0 GSAT0226 (GALILEO 31),2024-167B,2026-09-11T07:40:24.494880,1.70473586,.00025111,55.1647,218.9588,247.1445,114.4318,0,U,61183,999,1232,0,-.2E-7,0 BEIDOU-3 M25 (C47),2024-168B,2026-09-11T08:44:35.394720,1.86230059,.00045218,54.3933,299.2402,288.6681,66.5723,0,U,61186,999,1338,0,-.51E-6,0 BEIDOU-3 M27 (C49),2024-168C,2026-09-11T19:19:42.947616,1.86230254,.00007278,54.3885,299.2074,333.0111,92.9908,0,U,61187,999,1087,0,-.54E-6,0 GPS BIII-7 (PRN 01),2024-242A,2026-09-09T04:39:03.588192,2.00573456,.00191759,54.8068,330.7730,1.5951,67.0727,0,U,62339,999,1294,0,-.88E-6,0 QZS-6 (QZSS/PRN 200),2025-023A,2026-09-12T00:14:23.327808,1.00270149,.000161,0.0404,73.6831,112.5074,258.9253,0,U,62876,999,581,0,-.248E-5,0 COSMOS 2584 (704K),2025-042A,2026-09-11T22:52:06.524256,2.13103480,.0006381,65.1394,69.8549,202.7942,157.2117,0,U,63130,999,1189,0,.1E-7,0 GPS BIII-8 (PRN 21),2025-116A,2026-09-11T14:00:16.256736,2.00569574,.00089637,55.2912,27.6605,334.7276,202.3499,0,U,64202,999,960,0,-.93E-6,0 COSMOS 2596 (708K),2025-206B,2026-09-12T06:26:17.225088,2.13100809,.00123316,64.5787,311.9496,301.9191,55.4949,0,U,65590,999,776,0,-.46E-6,0 GSAT0233 (GALILEO 33),2025-302A,2026-09-11T03:57:18.785664,1.70474110,.00028117,54.3907,99.6797,137.8820,225.2404,0,U,67160,999,459,0,.14E-6,0 GSAT0234 (GALILEO 34),2025-302C,2026-09-11T03:48:38.909088,1.70474090,.00005097,54.3927,99.6790,35.7866,143.7414,0,U,67162,999,464,0,.14E-6,0 GPS BIII-9 (PRN 20),2026-017A,2026-09-11T22:44:12.094080,2.00568964,.00207414,55.1491,85.2737,263.1983,96.6286,0,U,67588,999,43335,0,.2E-7,0 GPS BIII-10 (PRN 13),2026-087A,2026-09-11T09:34:24.508128,2.00577427,.00213243,54.9553,204.3810,102.9910,67.7109,0,U,68791,999,256,0,-.12E-6,0 COSMOS 2619,2026-194A,2026-09-03T01:12:20.963232,2.12709114,.00046554,64.7592,312.0581,49.6429,310.4698,0,U,100460,999,22,0,-.32E-6,0